Вернуться в каталог

ION SCV-011

АктивенНаукаPO
NORAD 56957·PAYLOAD·🇮🇹 Italy

Запущен Jun 12, 2023 с Vandenberg Space Force Base

Loading…

Ближайшие Пролёты (ближайшие 24 часа)

TLE

СвежийSource: Space-Track

Эпоха: Sep 13, 2026, 23:47 UTC

1 56957U 23084AB  26256.99097399  .00004217  00000-0  15009-3 0  9997
2 56957  98.1357  92.5572 0008483  88.8090 271.4120 15.29582284179384

Отслеживайте ION SCV-011 в реальном времени с AllMySat

Download on the App Store